• In Hungary
  • List of Countries
  • For 7 days
  • Water Temperature
  • Satellite Maps
  • Weather Map
  • News
  • Weather Widgets
  • user-avatar
    Login

    Hourly Weather Budyliv

    Today, 18 January, Thursday

    Time Temperature Precipitation Wind Pressure Humidity
    00:00 0°C° 0 mm 1 mps 724 mmHg 98%
    01:00 -2°C° 0 mm 3 mps 724 mmHg 98%
    02:00 -2°C° 0 mm 1 mps 726 mmHg 100%
    03:00 -3°C° 0 mm 2 mps 726 mmHg 98%
    04:00 -4°C° 0 mm 3 mps 726 mmHg 99%
    05:00 -4°C° 0 mm 4 mps 727 mmHg 98%
    06:00 -5°C° 0 mm 5 mps 728 mmHg 97%
    07:00 -6°C° 0 mm 6 mps 728 mmHg 97%
    08:00 -6°C° 0 mm 6 mps 729 mmHg 99%
    09:00 -6°C° 0 mm 6 mps 729 mmHg 100%
    10:00 -5°C° 0 mm 5 mps 730 mmHg 98%
    11:00 -4°C° 0 mm 6 mps 731 mmHg 98%
    12:00 -4°C° 0 mm 6 mps 731 mmHg 97%
    13:00 -4°C° 0 mm 6 mps 732 mmHg 97%
    14:00 -4°C° 0 mm 6 mps 732 mmHg 96%
    15:00 -4°C° 0 mm 5 mps 732 mmHg 97%
    16:00 -3°C° 0 mm 4 mps 732 mmHg 98%
    17:00 -4°C° 0 mm 3 mps 732 mmHg 98%
    18:00 -2°C° 0 mm 1 mps 732 mmHg 100%
    19:00 -3°C° 0 mm 0 mps 732 mmHg 100%
    20:00 -2°C° 0 mm 1 mps 732 mmHg 100%
    21:00 -5°C° 0 mm 2 mps 731 mmHg 100%
    22:00 -6°C° 0 mm 3 mps 730 mmHg 92%
    23:00 -7°C° 0 mm 4 mps 730 mmHg 87%

    Tomorrow, 19 January, Friday

    Time Temperature Precipitation Wind Pressure Humidity
    00:00 -8°C° 0 mm 4 mps 729 mmHg 93%
    01:00 -7°C° 0 mm 5 mps 728 mmHg 93%
    02:00 -7°C° 0 mm 4 mps 727 mmHg 93%
    03:00 -7°C° 0 mm 4 mps 727 mmHg 94%
    04:00 -4°C° 0 mm 3 mps 727 mmHg 88%
    05:00 -4°C° 0 mm 3 mps 727 mmHg 86%
    06:00 -2°C° 0 mm 3 mps 727 mmHg 87%
    07:00 -2°C° 0 mm 3 mps 727 mmHg 87%
    08:00 -2°C° 0 mm 3 mps 727 mmHg 86%
    09:00 -1°C° 0 mm 3 mps 728 mmHg 87%
    10:00 -1°C° 0 mm 3 mps 728 mmHg 88%
    11:00 0°C° 0 mm 4 mps 729 mmHg 87%
    12:00 +1°C° 0 mm 6 mps 730 mmHg 84%
    13:00 +2°C° 0 mm 7 mps 730 mmHg 82%
    14:00 +2°C° 0 mm 6 mps 731 mmHg 82%
    15:00 +2°C° 0 mm 5 mps 731 mmHg 83%
    16:00 +1°C° 0 mm 4 mps 732 mmHg 86%
    17:00 +1°C° 0 mm 3 mps 732 mmHg 89%
    18:00 0°C° 0 mm 3 mps 733 mmHg 91%
    19:00 -1°C° 0 mm 2 mps 733 mmHg 91%
    20:00 +1°C° 0 mm 1 mps 734 mmHg 88%
    21:00 +1°C° 0 mm 1 mps 734 mmHg 84%
    22:00 +1°C° 0 mm 1 mps 734 mmHg 82%
    23:00 +1°C° 0 mm 1 mps 735 mmHg 81%

    Day after tomorrow, 20 January, Saturday

    Time Temperature Precipitation Wind Pressure Humidity
    00:00 +1°C° 0 mm 1 mps 735 mmHg 82%
    01:00 0°C° 0 mm 1 mps 735 mmHg 88%
    02:00 -5°C° 0 mm 3 mps 736 mmHg 94%
    03:00 -4°C° 0 mm 2 mps 736 mmHg 95%
    04:00 -3°C° 0 mm 2 mps 736 mmHg 94%
    05:00 -1°C° 0 mm 1 mps 736 mmHg 91%
    06:00 -1°C° 0 mm 1 mps 736 mmHg 90%
    07:00 -2°C° 0 mm 0 mps 736 mmHg 88%
    08:00 -2°C° 0 mm 0 mps 736 mmHg 89%
    09:00 -1°C° 0 mm 1 mps 736 mmHg 90%
    10:00 -1°C° 0 mm 1 mps 736 mmHg 92%
    11:00 0°C° 0 mm 1 mps 736 mmHg 93%
    12:00 +1°C° 0 mm 1 mps 736 mmHg 92%
    13:00 +1°C° 0 mm 2 mps 736 mmHg 92%
    14:00 0°C° 0 mm 3 mps 736 mmHg 93%
    15:00 0°C° 0 mm 3 mps 735 mmHg 92%
    16:00 +1°C° 0 mm 2 mps 735 mmHg 93%
    17:00 -1°C° 0 mm 2 mps 735 mmHg 96%
    18:00 -4°C° 0 mm 3 mps 735 mmHg 99%
    19:00 -5°C° 0 mm 3 mps 735 mmHg 100%
    20:00 -5°C° 0 mm 4 mps 735 mmHg 100%
    21:00 -5°C° 0 mm 3 mps 734 mmHg 100%
    22:00 -5°C° 0 mm 3 mps 734 mmHg 100%
    23:00 -5°C° 0 mm 3 mps 734 mmHg 100%

    21 January, Sunday

    Time Temperature Precipitation Wind Pressure Humidity
    00:00 -5°C° 0 mm 3 mps 734 mmHg 100%
    01:00 -6°C° 0 mm 3 mps 734 mmHg 100%
    02:00 -5°C° 0 mm 2 mps 734 mmHg 99%
    03:00 -5°C° 0 mm 2 mps 734 mmHg 98%
    04:00 -6°C° 0 mm 2 mps 733 mmHg 99%
    05:00 -8°C° 0 mm 3 mps 733 mmHg 100%
    06:00 -8°C° 0 mm 3 mps 733 mmHg 100%
    07:00 -8°C° 0 mm 2 mps 734 mmHg 100%
    08:00 -8°C° 0 mm 2 mps 735 mmHg 100%
    09:00 -7°C° 0 mm 2 mps 735 mmHg 99%
    10:00 -6°C° 0 mm 2 mps 735 mmHg 99%
    11:00 -5°C° 0 mm 2 mps 735 mmHg 98%
    12:00 -6°C° 0 mm 3 mps 735 mmHg 98%
    13:00 -4°C° 0 mm 2 mps 735 mmHg 97%
    14:00 -3°C° 0 mm 2 mps 736 mmHg 96%
    15:00 -4°C° 0 mm 3 mps 736 mmHg 96%
    16:00 -3°C° 0 mm 2 mps 737 mmHg 96%
    17:00 -4°C° 0.1 mm 2 mps 737 mmHg 99%
    18:00 -3°C° 0 mm 2 mps 738 mmHg 99%
    19:00 -3°C° 0.1 mm 2 mps 738 mmHg 100%
    20:00 -1°C° 0.3 mm 1 mps 738 mmHg 100%
    21:00 -3°C° 0.8 mm 2 mps 739 mmHg 100%
    22:00 -3°C° 0.7 mm 2 mps 739 mmHg 100%
    23:00 -4°C° 0.6 mm 3 mps 739 mmHg 100%

    22 January, Monday

    Time Temperature Precipitation Wind Pressure Humidity
    00:00 -5°C° 0.5 mm 4 mps 740 mmHg 100%
    01:00 -5°C° 0.5 mm 3 mps 740 mmHg 100%
    02:00 -7°C° 0.5 mm 4 mps 740 mmHg 100%

    23 January, Tuesday

    Time Temperature Precipitation Wind Pressure Humidity
    Show more